Location: Newark
(45.5000°N, 11.4167°E)
Time: 23:26:03
(UTC+00:00)

Explorer 11/Cluster Stage 4 - Pass Details

Date: 28 August 2019
Orbit: 467 x 1260 km, 28.8° (Epoch: 21 September)

Event Time Altitude Azimuth Distance (km) Brightness Sun altitude
Rises 12:18:01 0° 253° (WSW) 4,169 10.6 51.8°
Reaches altitude 10° 12:22:47 10° 229° (SW) 3,231 10.5 51.4°
Maximum altitude 12:26:22 13° 203° (SSW) 2,954 10.5 51.1°
Drops below altitude 10° 12:29:55 10° 177° (S) 3,175 10.4 50.8°
Sets 12:34:31 0° 153° (SSE) 4,040 10.5 50.4°
